EDW46 LSZH-OOMS

Flight info

Callsign EDW46
Flight time N/A
Altitude 35000
Route DEGES Z2 TUNUM Z204 GEDSO DCT VEKEN/N0467F370 DCT DARZA DCT PINDO/N0469F390 DCT PAXIS Y707 OBRAN L321 REXUM M872 MEDRO/N0468F410 M872 GOKSA Y214 RAPMA DCT MEVDO DCT ALROK DCT DEBIN DCT MIDGU M717 PUTSO N685 LAKLU G216 MCT
Aircraft A343/H-SDE2E3FGHIJ4J5M1RWXY/LB1D1

Departure

Time 2026-05-04 16:05
Airport Zürich Airport (LSZH)

Arrival

Time N/A
Airport Muscat International Airport (OOMS)
Time Latitude Longitude Altitude Speed Heading
2026-05-04 15:39 47.46061 8.55439 1401 ft 0 kts
2026-05-04 15:54 47.46045 8.55436 1408 ft 2 kts
2026-05-04 15:54 47.46029 8.55434 1404 ft 2 kts
2026-05-04 15:54 47.46012 8.55433 1406 ft 2 kts 26°
2026-05-04 15:55 47.45998 8.55420 1408 ft 2 kts 40°
2026-05-04 15:55 47.45987 8.55403 1411 ft 2 kts 56°
2026-05-04 15:55 47.45978 8.55382 1405 ft 2 kts 76°
2026-05-04 15:55 47.45975 8.55368 1408 ft 1 kts 100°
2026-05-04 15:56 47.45975 8.55367 1410 ft 0 kts 102°
2026-05-04 15:57 47.45974 8.55386 1409 ft 6 kts 96°
2026-05-04 15:58 47.45967 8.55474 1415 ft 11 kts 96°
2026-05-04 15:58 47.45957 8.55617 1406 ft 16 kts 96°
2026-05-04 15:58 47.45944 8.55795 1401 ft 18 kts 96°
2026-05-04 15:58 47.45931 8.55979 1407 ft 18 kts 96°
2026-05-04 15:59 47.45918 8.56161 1409 ft 18 kts 96°
2026-05-04 15:59 47.45933 8.56302 1412 ft 12 kts 48°
2026-05-04 15:59 47.46001 8.56324 1409 ft 4 kts
2026-05-04 15:59 47.46002 8.56324 1409 ft 0 kts
2026-05-04 16:02 47.46017 8.56327 1411 ft 5 kts
2026-05-04 16:03 47.46059 8.56339 1413 ft 7 kts 20°
2026-05-04 16:03 47.46102 8.56385 1418 ft 7 kts 41°
2026-05-04 16:03 47.46150 8.56416 1416 ft 7 kts 349°
2026-05-04 16:03 47.46171 8.56393 1415 ft 0 kts 317°
2026-05-04 16:04 47.46174 8.56389 1416 ft 3 kts 317°
2026-05-04 16:04 47.46559 8.55861 1414 ft 98 kts 317°
2026-05-04 16:04 47.47215 8.54966 1412 ft 156 kts 318°
2026-05-04 16:05 47.48064 8.53828 1940 ft 171 kts 316°
2026-05-04 16:05 47.48996 8.52578 2518 ft 188 kts 315°
2026-05-04 16:05 47.51363 8.50181 3470 ft 231 kts 351°
2026-05-04 16:06 47.52912 8.50725 4360 ft 232 kts 34°
2026-05-04 16:06 47.54278 8.56381 6620 ft 231 kts 76°
2026-05-04 16:07 47.54744 8.58734 7126 ft 246 kts 74°
2026-05-04 16:07 47.56410 8.66159 9322 ft 259 kts 74°
2026-05-04 16:08 47.56836 8.68751 10038 ft 260 kts 89°
2026-05-04 16:08 47.53691 8.75065 11317 ft 290 kts 147°
2026-05-04 16:09 47.50188 8.78663 11927 ft 324 kts 146°
2026-05-04 16:09 47.46819 8.83525 12475 ft 359 kts 120°
2026-05-04 16:10 47.45425 8.90799 13440 ft 379 kts 103°
2026-05-04 16:11 47.43805 9.02453 15104 ft 394 kts 104°
2026-05-04 16:11 47.43243 9.06399 15634 ft 399 kts 104°
2026-05-04 16:12 47.41596 9.18665 17202 ft 416 kts 97°
2026-05-04 16:12 47.42805 9.31552 18777 ft 432 kts 78°
2026-05-04 16:13 47.44228 9.40268 19851 ft 438 kts 78°
2026-05-04 16:13 47.45619 9.49042 20779 ft 445 kts 79°
2026-05-04 16:14 47.46879 9.58077 21718 ft 449 kts 85°
2026-05-04 16:14 47.46926 9.67348 22584 ft 453 kts 96°
2026-05-04 16:15 47.46162 9.81370 23864 ft 461 kts 98°
2026-05-04 16:16 47.45592 9.90856 24605 ft 466 kts 97°
2026-05-04 16:16 47.44765 10.05203 25754 ft 472 kts 97°
2026-05-04 16:17 47.44206 10.14871 26396 ft 476 kts 97°
2026-05-04 16:18 47.42547 10.29376 27412 ft 478 kts 103°
2026-05-04 16:18 47.41895 10.34213 27770 ft 480 kts 104°
2026-05-04 16:19 47.39903 10.48749 28643 ft 486 kts 104°
2026-05-04 16:19 47.38558 10.58556 29233 ft 488 kts 104°
2026-05-04 16:20 47.36516 10.73232 30342 ft 486 kts 104°
2026-05-04 16:20 47.35143 10.83040 30929 ft 486 kts 104°
2026-05-04 16:21 47.33076 10.97676 31788 ft 486 kts 104°
2026-05-04 16:22 47.31689 11.07424 32403 ft 485 kts 104°
2026-05-04 16:22 47.29608 11.21944 33279 ft 483 kts 104°
2026-05-04 16:23 47.27517 11.36417 34078 ft 480 kts 105°
2026-05-04 16:24 47.23405 11.54837 34840 ft 471 kts 126°
2026-05-04 16:25 47.19746 11.62830 34954 ft 476 kts 128°
2026-05-04 16:26 47.06794 11.90852 35009 ft 476 kts 120°
2026-05-04 16:28 46.99474 12.12661 35026 ft 477 kts 119°
2026-05-04 16:29 46.89176 12.43158 35069 ft 478 kts 118°
2026-05-04 16:31 46.81758 12.64885 35063 ft 478 kts 119°
2026-05-04 16:32 46.72805 12.90872 35057 ft 479 kts 119°
2026-05-04 16:33 46.66786 13.08197 35056 ft 479 kts 119°
2026-05-04 16:34 46.62249 13.21185 35064 ft 479 kts 119°
2026-05-04 16:35 46.51626 13.45460 35575 ft 475 kts 135°
2026-05-04 16:36 46.49408 13.48951 35693 ft 476 kts 135°
2026-05-04 16:36 46.44868 13.55981 36057 ft 476 kts 136°
2026-05-04 16:37 46.40322 13.63013 36337 ft 478 kts 135°
2026-05-04 16:37 46.38079 13.66491 36572 ft 477 kts 135°
2026-05-04 16:37 46.33534 13.73539 36896 ft 478 kts 135°
2026-05-04 16:38 46.28973 13.80598 37066 ft 481 kts 135°
2026-05-04 16:39 46.17557 13.98188 37073 ft 478 kts 135°
2026-05-04 16:40 46.08448 14.12140 37056 ft 479 kts 135°
2026-05-04 16:41 45.96999 14.29570 37058 ft 479 kts 135°
2026-05-04 16:43 45.85541 14.46903 37059 ft 478 kts 135°
2026-05-04 16:43 45.78675 14.57238 37062 ft 478 kts 135°
2026-05-04 16:45 45.64849 14.77927 37058 ft 479 kts 135°
2026-05-04 16:46 45.53306 14.95080 37050 ft 479 kts 135°
2026-05-04 16:47 45.43829 15.08526 37039 ft 480 kts 139°
2026-05-04 16:48 45.33968 15.21314 37032 ft 480 kts 139°
2026-05-04 16:49 45.24183 15.34190 37037 ft 479 kts 139°
2026-05-04 16:50 45.15199 15.45975 37047 ft 479 kts 139°
2026-05-04 16:51 45.07848 15.55573 37050 ft 481 kts 139°
2026-05-04 16:52 44.97988 15.68396 37059 ft 483 kts 139°
2026-05-04 16:53 44.90539 15.78042 37067 ft 483 kts 139°
2026-05-04 16:54 44.80619 15.90832 37067 ft 484 kts 139°
2026-05-04 16:55 44.65685 16.09966 37068 ft 485 kts 139°
2026-05-04 16:56 44.53176 16.25888 37073 ft 486 kts 139°
2026-05-04 16:57 44.45632 16.35443 37082 ft 486 kts 139°
2026-05-04 16:58 44.35579 16.48123 37087 ft 488 kts 139°
2026-05-04 17:00 44.20424 16.67123 37091 ft 489 kts 139°
2026-05-04 17:01 44.07728 16.82935 37088 ft 490 kts 139°
2026-05-04 17:02 43.97536 16.95561 37095 ft 491 kts 139°
2026-05-04 17:03 43.89879 17.05006 37086 ft 491 kts 139°
2026-05-04 17:03 43.82214 17.14427 37104 ft 492 kts 138°
2026-05-04 17:04 43.71966 17.26971 37100 ft 493 kts 139°
2026-05-04 17:05 43.61662 17.39522 37097 ft 493 kts 139°
2026-05-04 17:06 43.53938 17.48892 37097 ft 494 kts 138°
2026-05-04 17:07 43.47044 17.57226 37097 ft 494 kts 138°
2026-05-04 17:07 43.41020 17.64489 37095 ft 494 kts 138°
2026-05-04 17:08 43.33274 17.73798 37102 ft 494 kts 139°
2026-05-04 17:09 43.28104 17.79991 37107 ft 494 kts 138°
2026-05-04 17:09 43.22905 17.86206 37103 ft 495 kts 138°
2026-05-04 17:10 43.09917 18.01667 37108 ft 496 kts 139°
2026-05-04 17:11 43.04690 18.07864 37113 ft 496 kts 139°
2026-05-04 17:12 42.96840 18.17143 37121 ft 496 kts 139°
2026-05-04 17:13 42.83788 18.32502 37126 ft 498 kts 139°
2026-05-04 17:14 42.73293 18.44785 37133 ft 498 kts 139°
2026-05-04 17:15 42.65386 18.54004 37129 ft 500 kts 139°
2026-05-04 17:16 42.54828 18.66261 37105 ft 500 kts 139°
2026-05-04 17:17 42.44263 18.78471 37137 ft 500 kts 139°
2026-05-04 17:18 42.33623 18.90711 37115 ft 501 kts 139°
2026-05-04 17:19 42.23018 19.02854 37102 ft 500 kts 139°
2026-05-04 17:20 42.12373 19.14988 37097 ft 502 kts 139°
2026-05-04 17:20 42.04372 19.24072 37096 ft 500 kts 139°
2026-05-04 17:21 41.93727 19.36110 37106 ft 501 kts 139°
2026-05-04 17:22 41.88383 19.42133 37107 ft 500 kts 139°
2026-05-04 17:23 41.77713 19.54116 37116 ft 499 kts 139°
2026-05-04 17:24 41.69747 19.63029 37118 ft 500 kts 139°
2026-05-04 17:25 41.59044 19.74956 37129 ft 501 kts 139°
2026-05-04 17:26 41.48340 19.86832 37129 ft 501 kts 139°
2026-05-04 17:27 41.34924 20.01643 37130 ft 502 kts 139°
2026-05-04 17:28 41.24146 20.13482 37127 ft 502 kts 139°
2026-05-04 17:29 41.07952 20.31173 37123 ft 504 kts 139°
2026-05-04 17:31 40.94439 20.45845 37119 ft 504 kts 140°
2026-05-04 17:32 40.64695 20.77861 37106 ft 505 kts 140°
2026-05-04 17:33 40.47650 20.96037 37280 ft 506 kts 140°
2026-05-04 17:34 40.39564 21.04856 37850 ft 504 kts 139°
2026-05-04 17:34 40.37757 21.06848 37974 ft 504 kts 139°
2026-05-04 17:35 40.29717 21.15660 38500 ft 503 kts 140°
2026-05-04 17:35 40.24325 21.21530 38763 ft 503 kts 140°
2026-05-04 17:35 40.21630 21.24458 38899 ft 503 kts 140°
2026-05-04 17:36 40.18941 21.27376 39009 ft 503 kts 140°
2026-05-04 17:36 40.13518 21.33252 39108 ft 506 kts 140°
2026-05-04 17:37 39.94597 21.53656 39110 ft 501 kts 140°
2026-05-04 17:37 39.72954 21.76813 39107 ft 502 kts 140°
2026-05-04 17:38 39.51472 21.99607 39105 ft 504 kts 140°
2026-05-04 17:38 39.29597 22.22626 39110 ft 508 kts 140°